• Join FlightAware (Why Join?)
  • Login
  • US Flag 
09:48AM EDT


 

Airport Tracker/Info


-or-


 

Live Flight TrackerFlight Track Log ✈ SWA267 ✈ 17-Apr-2013 ✈ KORF - KBWI

Flight Track Log - Related Links

Times and Time Zones

All times are in EDT time to prevent confusion due to time zone crossing. See the SWA267 flight status page for this flight to view local times or setup timezone preferences in your user account.

Time Position Orientation Groundspeed Altitude Reporting Facility
EDT Latitude Longitude Course Direction KTS MPH feet Rate Location/Type
12:21PM 36.8778 -76.3008 266° West 192 221 4,600  Level Washington Center
12:22PM 36.8900 -76.3867 280° West 220 253 6,600 3,000 Climbing Washington Center
12:23PM 36.9372 -76.4650 307° West 249 287 10,700 3,360 Climbing Washington Center
12:24PM 36.9931 -76.5567 307° West 291 335 13,400 1,620 Climbing Washington Center
12:25PM 37.0486 -76.6483 307° West 327 376 14,000 300 Climbing Washington Center
12:26PM 37.1061 -76.7456 307° West 342 394 14,000  Level Washington Center
12:27PM 37.1614 -76.8375 307° West 342 394 14,000  Level Washington Center
12:28PM 37.2253 -76.9222 313° West 337 388 14,000  Level Washington Center
12:29PM 37.3208 -76.9394 352° North 320 368 14,000  Level Washington Center
12:30PM 37.4083 -76.9567 351° North 320 368 14,000  Level Washington Center
12:31PM 37.4917 -76.9711 352° North 331 381 14,000  Level Washington Center
12:32PM 37.5875 -76.9886 352° North 331 381 14,000  Level Washington Center
12:33PM 37.6894 -77.0064 352° North 336 387 14,000  Level Washington Center
12:34PM 37.7789 -77.0236 351° North 336 387 14,000  Level Washington Center
12:35PM 37.8725 -77.0414 351° North 336 387 14,000  Level Washington Center
12:36PM 37.9642 -77.0589 351° North 336 387 14,000  Level Washington Center
12:37PM 38.0556 -77.0764 351° North 336 387 14,000  Level Washington Center
12:38PM 38.1450 -77.0914 352° North 331 381 14,000  Level Washington Center
12:39PM 38.2386 -77.1092 352° North 331 381 14,000  Level Washington Center
12:40PM 38.3303 -77.1269 351° North 331 381 14,000  Level Washington Center
12:41PM 38.4161 -77.0969 15° North 325 374 14,000 -600 Level Washington Center
12:42PM 38.4858 -77.0133 43° Northeast 316 364 12,800 -1,140 Descending Washington Center
12:43PM 38.5536 -76.9297 44° Northeast 323 372 11,800 -1,260 Descending Washington Center
12:44PM 38.6192 -76.8486 44° Northeast 328 377 10,300 -1,140 Descending Washington Center
12:45PM 38.6761 -76.7778 44° Northeast 308 354 9,600 -900 Descending Washington Center
12:46PM 38.7228 -76.6986 53° Northeast 289 333 8,600 -1,260 Descending Washington Center
12:47PM 38.7667 -76.6167 55° Northeast 281 323 7,200 -1,380 Descending Potomac TRACON
12:48PM 38.8000 -76.5333 63° Northeast 270 311 6,000 -1,080 Descending Potomac TRACON
12:50PM 38.8758 -76.5470 343° North  Level FlightAware Approximate
12:50PM 38.9333 -76.4333 343° North 245 282 4,000  Level Potomac TRACON
12:51PM 38.9667 -76.4667 322° Northwest 171 197 3,700 -540 Descending Potomac TRACON
12:52PM 39.0000 -76.5167 311° West 172 198 3,000 -540 Descending Potomac TRACON
12:54PM 39.0716 -76.5785 343° North  Level Estimated
12:54PM 39.0833 -76.5833 343° North 174 200 2,100  Level Potomac TRACON
12:55PM 39.1167 -76.6167 322° Northwest 155 178 1,200 -900 Descending Potomac TRACON
12:56PM 39.1500 -76.6500 322° Northwest 133 153 400 -840 Descending Potomac TRACON
12:58PM 39.1667 -76.6667 339° North  Level FlightAware Approximate
01:05PM 39.1754 -76.6683 339° North  Level Estimated
01:06PM 39.1754 -76.6683 339° North  Level Estimated
01:07PM 39.1754 -76.6683 339° North  Level Estimated
01:08PM 39.1754 -76.6683 339° North  Level Estimated